Change the Weather History Date:

Thursday, November 14, 2013

  Actual Average Record
Temperature  
Mean Temperature 38 °F -  
Max Temperature 45 °F 33 °F 64 °F (2011)
Min Temperature 30 °F 20 °F 14 °F (1996)
Degree Days  
Heating Degree Days 28    
Moisture  
Dew Point 25 °F    
Average Humidity 61    
Maximum Humidity 87    
Minimum Humidity 41    
Precipitation  
Precipitation 0.00 in 0.11 in - ()
Sea Level Pressure  
Sea Level Pressure 29.96 in    
Wind  
Wind Speed 12 mph ()    
Max Wind Speed 21 mph    
Max Gust Speed 28 mph    
Visibility 15.0 miles    
Events      
Averages and records for this station are not official NWS values.
T = Trace of Precipitation, MM = Missing Value Source: Averaged Metar Reports

Daily Weather History Graph

Daily Weather History Graph

Search for Another Location

Airport or City:

Trip Planner

Search our weather history database for the weather conditions in past years. The results will help you decide how hot, cold, wet, or windy it might be!

Date:

Astronomy

Nov. 14, 2013 Rise Set
Actual Time 7:00 AM EST 4:33 PM EST
Civil Twilight 6:28 AM EST 5:05 PM EST
Nautical Twilight 5:52 AM EST 5:41 PM EST
Astronomical Twilight 5:17 AM EST 6:16 PM EST
Moon 3:00 PM EST (11/14) 3:45 AM EST (11/14)
Length of Visible Light 10h 37m
Length of Day
9h 33m
Waxing Gibbous, 91% of the Moon is Illuminated
Nov 14
Waxing Gibbous
Nov 17
Full
Nov 25
Last Quarter
Dec 2
New
Dec 9
First Quarter

Hourly Weather History & Observations

Time (EST) Temp. Windchill Dew Point Humidity Pressure Visibility Wind Dir Wind Speed Gust Speed Precip Events Conditions
12:00 AM 35.6 °F 26.6 °F 24.8 °F 65% 29.93 in 15.0 mi SW 13.8 mph 23.0 mph N/A   Overcast
1:00 AM 36 °F - 24 °F 49% 29.94 in 15 mi SW 15.0 mph - -   Mostly Cloudy
1:00 AM 35.6 °F 25.9 °F 24.8 °F 65% 29.94 in 15.0 mi SW 16.1 mph 21.9 mph N/A   Mostly Cloudy
2:00 AM 35.6 °F 27.1 °F 21.2 °F 56% 29.94 in 15.0 mi SW 12.7 mph 19.6 mph N/A   Mostly Cloudy
3:00 AM 33.8 °F 24.3 °F 19.4 °F 56% 29.93 in 15.0 mi SW 13.8 mph 20.7 mph N/A   Mostly Cloudy
4:00 AM 33.8 °F 23.5 °F 19.4 °F 56% 29.93 in 15.0 mi SW 16.1 mph 23.0 mph N/A   Partly Cloudy
5:00 AM 33.8 °F 23.2 °F 19.4 °F 56% 29.94 in 15.0 mi SW 17.3 mph 25.3 mph N/A   Mostly Cloudy
6:00 AM 33.8 °F 23.9 °F 19.4 °F 56% 29.94 in 15.0 mi WSW 15.0 mph 21.9 mph N/A   Mostly Cloudy
7:00 AM 33 °F - 21 °F 48% 29.96 in 15 mi SW 11.5 mph - -   Mostly Cloudy
7:00 AM 33.8 °F 25.3 °F 21.2 °F 60% 29.96 in 15.0 mi SW 11.5 mph 19.6 mph N/A   Mostly Cloudy
8:00 AM 33.8 °F 24.8 °F 21.2 °F 60% 29.98 in 15.0 mi SW 12.7 mph 18.4 mph N/A   Mostly Cloudy
9:00 AM 37.4 °F 28.2 °F 23.0 °F 56% 29.99 in 15.0 mi SW 16.1 mph 23.0 mph N/A   Mostly Cloudy
10:00 AM 37.4 °F 26.9 °F 24.8 °F 60% 29.99 in 15.0 mi SW 20.7 mph 27.6 mph N/A   Mostly Cloudy
11:00 AM 41.0 °F 32.2 °F 24.8 °F 53% 29.99 in 15.0 mi SW 18.4 mph 26.5 mph N/A   Mostly Cloudy
12:00 PM 41.0 °F 32.5 °F 26.6 °F 57% 29.97 in 15.0 mi SW 17.3 mph 23.0 mph N/A   Mostly Cloudy
1:00 PM 42 °F - 26 °F 41% 29.98 in 15 mi SW 13.8 mph - -   Partly Cloudy
1:00 PM 42.8 °F 35.1 °F 26.6 °F 53% 29.97 in 15.0 mi SW 16.1 mph 23.0 mph N/A   Scattered Clouds
2:00 PM 44.6 °F 40.2 °F 26.6 °F 49% 29.96 in 15.0 mi SW 8.1 mph - N/A   Scattered Clouds
3:00 PM 44.6 °F 38.4 °F 26.6 °F 49% 29.95 in 15.0 mi SSW 12.7 mph - N/A   Scattered Clouds
4:00 PM 42.8 °F 36.6 °F 26.6 °F 53% 29.95 in 15.0 mi SSW 11.5 mph - N/A   Scattered Clouds
5:00 PM 39.2 °F 34.2 °F 24.8 °F 56% 29.95 in 15.0 mi SSW 6.9 mph - N/A   Mostly Cloudy
6:00 PM 39.2 °F 33.0 °F 26.6 °F 61% 29.96 in 15.0 mi South 9.2 mph - N/A   Mostly Cloudy
7:00 PM 37 °F - 31 °F 69% 29.96 in 15 mi South 6.9 mph - -   Clear
7:00 PM 37.4 °F 32.1 °F 30.2 °F 75% 29.96 in 15.0 mi SSW 6.9 mph - N/A   Partly Cloudy
8:00 PM 37.4 °F 32.8 °F 30.2 °F 75% 29.96 in 15.0 mi South 5.8 mph - N/A   Partly Cloudy
8:48 PM 35.6 °F 30.7 °F 30.2 °F 81% 29.96 in 15.0 mi South 5.8 mph - N/A   Overcast
9:00 PM 35.6 °F 30.7 °F 30.2 °F 81% 29.96 in 15.0 mi South 5.8 mph - N/A   Overcast
10:00 PM 33.8 °F - 28.4 °F 81% 29.96 in 15.0 mi South 2.3 mph - N/A   Overcast
11:00 PM 32.0 °F 27.5 °F 28.4 °F 87% 29.96 in 15.0 mi SSW 4.6 mph - N/A   Mostly Cloudy